Regional Weather Roundup
Issued by NWS

Home | Current Version | Previous Version | Text Only | Print | Product List | Glossary Off
Versions: 1 2 3 4 5 6 7 8 9 10 11 12 13 14 15 16 17 18 19 20 21 22 23 24 25 26 27 28 29 30 31 32 33 34 35 36 37 38 39 40 41 42 43 44 45 46 47 48 49 50

388
ASUS43 KLSX 251610
RWRMO

WEATHER SUMMARY FOR MISSOURI
NATIONAL WEATHER SERVICE SPRINGFIELD MO
1100 AM CDT WED MAY 25 2016

NOTE: "FAIR" INDICATES FEW OR NO CLOUDS BELOW 12,000 FEET WITH NO
       SIGNIFICANT WEATHER AND/OR OBSTRUCTIONS TO VISIBILITY.
       CURRENT SKY AND/OR WEATHER CONDITIONS ARE NOT AVAILABLE FOR
       CHILLICOTHE AND FARMINGTON.

MOZ001>031-035>038-043-044-053-054-251700-
...NORTHERN AND WESTERN MISSOURI...

CITY           SKY/WX    TMP DP  RH WIND       PRES   REMARKS
KANSAS CTY INT PTSUNNY   72  60  66 NE8       29.92F
KANSAS C DTWN  PTSUNNY   73  62  68 E8        29.91F
LEE`S SUMMIT   CLOUDY    71  62  73 NE8       29.93F
ST JOSEPH      CLOUDY    72  60  66 NW12      29.97R
CHILLICOTHE      N/A     73  64  73 SE5       29.94F
KIRKSVILLE     CLOUDY    69  64  84 CALM      29.98R

$$
MOZ066>068-077>081-088>096-101>105-251700-
...SOUTHWEST MISSOURI...

CITY           SKY/WX    TMP DP  RH WIND       PRES   REMARKS
SPRINGFIELD    LGT RAIN  65  58  78 SE32G39   29.91F
JOPLIN         CLOUDY    70  59  68 S16G24    29.88S
BRANSON        TSTM      64  63  94 W9        30.13S FOG

$$
MOZ032>034-039>042-045>050-055>058-069>072-251700-
...CENTRAL MISSOURI...

CITY           SKY/WX    TMP DP  RH WIND       PRES   REMARKS
COLUMBIA       CLOUDY    71  67  87 E8        29.95F
JEFFERSON CITY CLOUDY    71  66  84 E9        29.94R
ROLLA          CLOUDY    71  65  81 S14       30.00R
SEDALIA        CLOUDY    75  63  66 MISG      29.93R
WHITEMAN AFB   CLOUDY    72  67  84 N9        29.91R
WARRENSBURG    CLOUDY    70  63  78 N8        29.93R

$$
MOZ051-052-059>065-251700-
...EAST CENTRAL MISSOURI...

CITY           SKY/WX    TMP DP  RH WIND       PRES   REMARKS
ST LOUIS INTL  PTSUNNY   76  65  68 SE9       29.99F
SPIRIT OF STL  CLOUDY   N/A N/A N/A MISG      29.97F
ST CHARLES     MOSUNNY   75  66  73 S9        29.97F

$$
MOZ072>076-082>087-097>100-106>115-251700-
...SOUTH CENTRAL AND SOUTHEAST MISSOURI...

CITY           SKY/WX    TMP DP  RH WIND       PRES   REMARKS
CAPE GIRARDEAU CLOUDY    73  67  81 S8        30.07S
FARMINGTON     CLOUDY    70  65  84 S10       30.06R
POPLAR BLUFF   CLOUDY    70  64  81 SW10      30.07R
WEST PLAINS    CLOUDY    70  63  78 W9        30.09F

$$




USA.gov is the U.S. government's official web portal to all federal, state and local government web resources and services.